Wetterdaten vom Mittwoch, 12. August 2020

Temperatur Taupunkt Windchill Luftfeuchte Luftdruck Solarstrahlung Regen ET
(Verdunstung von Wasser)
Wind
Max 31.6 °C
13:30
20 °C
11:05
31.3 °C
13:30
91%
06:20
1011.6 hPa
00:25
762 W/m²
13:20
19.5 km/h
13:35 km/h
Durchschnitt 22.1 °C 17.5 °C 21.9 °C 78% 1011.1 hPa 428 W/m² 0 mm 2.134 mm 5 km/h
Min 18.1 °C
04:20
16.2 °C
13:40
18.1 °C
04:20
40%
13:40
1009.8 hPa
13:30
0 km/h (Böe)
00:15 km/h
Zeit
00:00 20.5 °C 17.1 °C 20.5 °C 81% 1011.3 hPa 0 W/m² 0.0 mm 0.000 mm 0.1 km/h
00:05 20.4 °C 17.0 °C 20.4 °C 81% 1011.3 hPa 0 W/m² 0.0 mm 0.000 mm 0.1 km/h
00:10 20.3 °C 16.9 °C 20.3 °C 81% 1010.9 hPa 0 W/m² 0.0 mm 0.000 mm 0.3 km/h
00:15 20.2 °C 17.0 °C 20.2 °C 82% 1011.1 hPa 0 W/m² 0.0 mm 0.000 mm 0.0 km/h
00:20 20.1 °C 17.1 °C 20.1 °C 83% 1011.3 hPa 0 W/m² 0.0 mm 0.000 mm 0.0 km/h
00:25 20.1 °C 17.1 °C 20.1 °C 83% 1011.6 hPa 0 W/m² 0.0 mm 0.000 mm 0.1 km/h
00:30 19.9 °C 16.9 °C 19.9 °C 83% 1011.4 hPa 0 W/m² 0.0 mm 0.000 mm 1.0 km/h
00:35 19.9 °C 16.9 °C 19.9 °C 83% 1011.3 hPa 0 W/m² 0.0 mm 0.000 mm 1.9 km/h
00:40 19.8 °C 17.0 °C 19.8 °C 84% 1011.5 hPa 0 W/m² 0.0 mm 0.000 mm 0.4 km/h
00:45 19.8 °C 17.0 °C 19.8 °C 84% 1011.0 hPa 0 W/m² 0.0 mm 0.000 mm 0.0 km/h
00:50 19.7 °C 16.9 °C 19.7 °C 84% 1010.9 hPa 0 W/m² 0.0 mm 0.000 mm 1.7 km/h
00:55 19.7 °C 16.9 °C 19.7 °C 84% 1010.9 hPa 0 W/m² 0.0 mm 0.000 mm 0.0 km/h
01:00 19.7 °C 17.1 °C 19.7 °C 85% 1011.0 hPa 0 W/m² 0.0 mm 0.025 mm 0.0 km/h
01:05 19.7 °C 17.1 °C 19.7 °C 85% 1011.3 hPa 0 W/m² 0.0 mm 0.000 mm 0.0 km/h
01:10 19.6 °C 17.0 °C 19.6 °C 85% 1011.0 hPa 0 W/m² 0.0 mm 0.000 mm 0.0 km/h
01:15 19.6 °C 17.0 °C 19.6 °C 85% 1011.3 hPa 0 W/m² 0.0 mm 0.000 mm 1.1 km/h
01:20 19.6 °C 17.0 °C 19.6 °C 85% 1011.1 hPa 0 W/m² 0.0 mm 0.000 mm 3.5 km/h
01:25 19.6 °C 17.2 °C 19.6 °C 86% 1011.5 hPa 0 W/m² 0.0 mm 0.000 mm 0.4 km/h
01:30 19.6 °C 17.2 °C 19.6 °C 86% 1011.3 hPa 0 W/m² 0.0 mm 0.000 mm 0.0 km/h
01:35 19.6 °C 17.2 °C 19.6 °C 86% 1011.2 hPa 0 W/m² 0.0 mm 0.000 mm 0.0 km/h
01:40 19.6 °C 17.2 °C 19.6 °C 86% 1011.1 hPa 0 W/m² 0.0 mm 0.000 mm 3.2 km/h
01:45 19.5 °C 17.1 °C 19.5 °C 86% 1011.2 hPa 0 W/m² 0.0 mm 0.000 mm 1.2 km/h
01:50 19.5 °C 17.3 °C 19.5 °C 87% 1011.2 hPa 0 W/m² 0.0 mm 0.000 mm 0.0 km/h
01:55 19.5 °C 17.3 °C 19.5 °C 87% 1011.2 hPa 0 W/m² 0.0 mm 0.000 mm 3.6 km/h
02:00 19.4 °C 17.2 °C 19.4 °C 87% 1011.5 hPa 0 W/m² 0.0 mm 0.026 mm 6.4 km/h
02:05 19.4 °C 17.2 °C 19.4 °C 87% 1011.1 hPa 0 W/m² 0.0 mm 0.000 mm 3.5 km/h
02:10 19.3 °C 17.1 °C 19.3 °C 87% 1011.4 hPa 0 W/m² 0.0 mm 0.000 mm 0.8 km/h
02:15 19.3 °C 17.1 °C 19.3 °C 87% 1011.5 hPa 0 W/m² 0.0 mm 0.000 mm 1.5 km/h
02:20 19.2 °C 17.2 °C 19.2 °C 88% 1011.4 hPa 0 W/m² 0.0 mm 0.000 mm 1.9 km/h
02:25 19.1 °C 17.1 °C 19.1 °C 88% 1011.5 hPa 0 W/m² 0.0 mm 0.000 mm 0.6 km/h
02:30 19.1 °C 17.1 °C 19.1 °C 88% 1011.1 hPa 0 W/m² 0.0 mm 0.000 mm 1.0 km/h
02:35 19.0 °C 17.0 °C 19.0 °C 88% 1011.3 hPa 0 W/m² 0.0 mm 0.000 mm 2.2 km/h
02:40 18.9 °C 17.0 °C 18.9 °C 89% 1011.4 hPa 0 W/m² 0.0 mm 0.000 mm 2.3 km/h
02:45 18.9 °C 17.0 °C 18.9 °C 89% 1011.3 hPa 0 W/m² 0.0 mm 0.000 mm 2.1 km/h
02:50 18.8 °C 16.9 °C 18.8 °C 89% 1011.2 hPa 0 W/m² 0.0 mm 0.000 mm 1.8 km/h
02:55 18.7 °C 16.8 °C 18.7 °C 89% 1011.0 hPa 0 W/m² 0.0 mm 0.000 mm 1.0 km/h
03:00 18.7 °C 16.8 °C 18.7 °C 89% 1010.9 hPa 0 W/m² 0.0 mm 0.025 mm 3.4 km/h
03:05 18.7 °C 16.8 °C 18.7 °C 89% 1010.9 hPa 0 W/m² 0.0 mm 0.000 mm 6.3 km/h
03:10 18.7 °C 16.8 °C 18.7 °C 89% 1011.2 hPa 0 W/m² 0.0 mm 0.000 mm 3.6 km/h
03:15 18.6 °C 16.7 °C 18.6 °C 89% 1011.1 hPa 0 W/m² 0.0 mm 0.000 mm 1.5 km/h
03:20 18.6 °C 16.7 °C 18.6 °C 89% 1011.0 hPa 0 W/m² 0.0 mm 0.000 mm 0.8 km/h
03:25 18.4 °C 16.6 °C 18.4 °C 89% 1011.0 hPa 0 W/m² 0.0 mm 0.000 mm 0.2 km/h
03:30 18.4 °C 16.6 °C 18.4 °C 89% 1011.1 hPa 0 W/m² 0.0 mm 0.000 mm 0.0 km/h
03:35 18.3 °C 16.5 °C 18.3 °C 89% 1011.1 hPa 0 W/m² 0.0 mm 0.000 mm 0.4 km/h
03:40 18.3 °C 16.5 °C 18.3 °C 89% 1011.1 hPa 0 W/m² 0.0 mm 0.000 mm 1.1 km/h
03:45 18.3 °C 16.5 °C 18.3 °C 89% 1010.8 hPa 0 W/m² 0.0 mm 0.000 mm 0.3 km/h
03:50 18.2 °C 16.5 °C 18.2 °C 90% 1011.1 hPa 0 W/m² 0.0 mm 0.000 mm 0.4 km/h
03:55 18.2 °C 16.5 °C 18.2 °C 90% 1011.1 hPa 0 W/m² 0.0 mm 0.000 mm 0.8 km/h
04:00 18.2 °C 16.5 °C 18.2 °C 90% 1011.0 hPa 0 W/m² 0.0 mm 0.000 mm 0.1 km/h
04:05 18.2 °C 16.5 °C 18.2 °C 90% 1010.9 hPa 0 W/m² 0.0 mm 0.000 mm 1.0 km/h
04:10 18.2 °C 16.5 °C 18.2 °C 90% 1011.1 hPa 0 W/m² 0.0 mm 0.000 mm 0.0 km/h
04:15 18.2 °C 16.5 °C 18.2 °C 90% 1011.0 hPa 0 W/m² 0.0 mm 0.000 mm 0.0 km/h
04:20 18.1 °C 16.4 °C 18.1 °C 90% 1011.2 hPa 0 W/m² 0.0 mm 0.000 mm 0.0 km/h
04:25 18.1 °C 16.4 °C 18.1 °C 90% 1011.0 hPa 0 W/m² 0.0 mm 0.000 mm 0.0 km/h
04:30 18.1 °C 16.4 °C 18.1 °C 90% 1011.2 hPa 0 W/m² 0.0 mm 0.000 mm 0.0 km/h
04:35 18.1 °C 16.4 °C 18.1 °C 90% 1011.2 hPa 0 W/m² 0.0 mm 0.000 mm 0.0 km/h
04:40 18.1 °C 16.4 °C 18.1 °C 90% 1011.0 hPa 0 W/m² 0.0 mm 0.000 mm 0.0 km/h
04:45 18.1 °C 16.4 °C 18.1 °C 90% 1011.1 hPa 0 W/m² 0.0 mm 0.000 mm 0.0 km/h
04:50 18.1 °C 16.4 °C 18.1 °C 90% 1011.0 hPa 0 W/m² 0.0 mm 0.000 mm 0.0 km/h
04:56 18.1 °C 16.4 °C 18.1 °C 90% 1011.0 hPa 0 W/m² 0.0 mm 0.000 mm 0.0 km/h
04:57 18.1 °C 16.4 °C 18.1 °C 90% 1011.0 hPa 0 W/m² 0.0 mm 0.000 mm 0.0 km/h
04:58 18.1 °C 16.4 °C 18.1 °C 90% 1011.0 hPa 0 W/m² 0.0 mm 0.000 mm 0.0 km/h
04:59 18.1 °C 16.4 °C 18.1 °C 90% 1011.0 hPa 0 W/m² 0.0 mm 0.000 mm 0.0 km/h
05:00 18.1 °C 16.4 °C 18.1 °C 90% 1011.0 hPa 0 W/m² 0.0 mm 0.000 mm 0.0 km/h
05:01 18.1 °C 16.4 °C 18.1 °C 90% 1011.0 hPa 0 W/m² 0.0 mm 0.000 mm 0.0 km/h
05:02 18.1 °C 16.4 °C 18.1 °C 90% 1011.0 hPa 0 W/m² 0.0 mm 0.000 mm 0.0 km/h
05:03 18.1 °C 16.4 °C 18.1 °C 90% 1011.0 hPa 0 W/m² 0.0 mm 0.000 mm 0.0 km/h
05:05 18.1 °C 16.4 °C 18.1 °C 90% 1011.0 hPa 0 W/m² 0.0 mm 0.000 mm 2.6 km/h
05:10 18.1 °C 16.4 °C 18.1 °C 90% 1011.1 hPa 0 W/m² 0.0 mm 0.000 mm 1.4 km/h
05:15 18.1 °C 16.4 °C 18.1 °C 90% 1011.0 hPa 0 W/m² 0.0 mm 0.000 mm 0.4 km/h
05:20 18.1 °C 16.4 °C 18.1 °C 90% 1010.7 hPa 0 W/m² 0.0 mm 0.000 mm 0.0 km/h
05:25 18.1 °C 16.4 °C 18.1 °C 90% 1011.1 hPa 0 W/m² 0.0 mm 0.000 mm 0.0 km/h
05:30 18.1 °C 16.4 °C 18.1 °C 90% 1011.1 hPa 0 W/m² 0.0 mm 0.000 mm 0.0 km/h
05:35 18.1 °C 16.4 °C 18.1 °C 90% 1010.8 hPa 0 W/m² 0.0 mm 0.000 mm 2.1 km/h
05:40 18.2 °C 16.5 °C 18.2 °C 90% 1011.1 hPa 0 W/m² 0.0 mm 0.000 mm 1.1 km/h
05:45 18.2 °C 16.5 °C 18.2 °C 90% 1011.1 hPa 0 W/m² 0.0 mm 0.000 mm 0.0 km/h
05:50 18.2 °C 16.5 °C 18.2 °C 90% 1011.3 hPa 0 W/m² 0.0 mm 0.000 mm 0.8 km/h
05:55 18.2 °C 16.5 °C 18.2 °C 90% 1011.3 hPa 0 W/m² 0.0 mm 0.000 mm 1.7 km/h
06:00 18.2 °C 16.5 °C 18.2 °C 90% 1010.8 hPa 0 W/m² 0.0 mm 0.000 mm 0.0 km/h
06:05 18.2 °C 16.5 °C 18.2 °C 90% 1011.0 hPa 0 W/m² 0.0 mm 0.000 mm 0.5 km/h
06:10 18.2 °C 16.5 °C 18.2 °C 90% 1011.0 hPa 4 W/m² 0.0 mm 0.000 mm 0.1 km/h
06:15 18.2 °C 16.5 °C 18.2 °C 90% 1010.9 hPa 8 W/m² 0.0 mm 0.000 mm 2.5 km/h
06:20 18.2 °C 16.7 °C 18.2 °C 91% 1011.3 hPa 10 W/m² 0.0 mm 0.000 mm 1.2 km/h
06:25 18.2 °C 16.7 °C 18.2 °C 91% 1011.1 hPa 13 W/m² 0.0 mm 0.000 mm 0.1 km/h
06:30 18.3 °C 16.8 °C 18.3 °C 91% 1011.3 hPa 17 W/m² 0.0 mm 0.000 mm 0.0 km/h
06:35 18.3 °C 16.8 °C 18.3 °C 91% 1011.5 hPa 21 W/m² 0.0 mm 0.000 mm 2.3 km/h
06:40 18.3 °C 16.8 °C 18.3 °C 91% 1011.5 hPa 26 W/m² 0.0 mm 0.000 mm 0.6 km/h
06:45 18.4 °C 16.9 °C 18.4 °C 91% 1011.2 hPa 31 W/m² 0.0 mm 0.000 mm 0.0 km/h
06:50 18.5 °C 17.0 °C 18.5 °C 91% 1011.5 hPa 37 W/m² 0.0 mm 0.000 mm 0.5 km/h
06:55 18.6 °C 17.1 °C 18.6 °C 91% 1011.4 hPa 40 W/m² 0.0 mm 0.000 mm 0.9 km/h
07:00 18.7 °C 17.0 °C 18.7 °C 90% 1011.5 hPa 47 W/m² 0.0 mm 0.026 mm 4.0 km/h
07:05 18.7 °C 17.0 °C 18.7 °C 90% 1011.5 hPa 55 W/m² 0.0 mm 0.000 mm 3.0 km/h
07:10 18.8 °C 17.1 °C 18.8 °C 90% 1011.5 hPa 61 W/m² 0.0 mm 0.000 mm 4.6 km/h
07:15 18.8 °C 17.1 °C 18.8 °C 90% 1011.5 hPa 66 W/m² 0.0 mm 0.000 mm 4.0 km/h
07:20 18.9 °C 17.2 °C 18.9 °C 90% 1011.5 hPa 69 W/m² 0.0 mm 0.000 mm 3.0 km/h
07:25 18.9 °C 17.2 °C 18.9 °C 90% 1011.4 hPa 70 W/m² 0.0 mm 0.000 mm 3.2 km/h
07:30 19.1 °C 17.2 °C 19.1 °C 89% 1011.1 hPa 73 W/m² 0.0 mm 0.000 mm 2.9 km/h
07:35 19.2 °C 17.3 °C 19.2 °C 89% 1011.4 hPa 72 W/m² 0.0 mm 0.000 mm 5.4 km/h
07:40 19.2 °C 17.2 °C 19.2 °C 88% 1011.5 hPa 82 W/m² 0.0 mm 0.000 mm 3.6 km/h
07:45 19.3 °C 17.4 °C 19.3 °C 89% 1011.2 hPa 126 W/m² 0.0 mm 0.000 mm 3.5 km/h
07:50 19.7 °C 17.7 °C 19.7 °C 88% 1011.5 hPa 218 W/m² 0.0 mm 0.000 mm 4.7 km/h
07:55 20.0 °C 17.8 °C 20.0 °C 87% 1011.1 hPa 210 W/m² 0.0 mm 0.000 mm 5.8 km/h
08:00 20.2 °C 17.6 °C 20.2 °C 85% 1011.4 hPa 126 W/m² 0.0 mm 0.076 mm 5.6 km/h
08:05 20.3 °C 17.7 °C 20.3 °C 85% 1011.3 hPa 103 W/m² 0.0 mm 0.000 mm 4.8 km/h
08:10 20.2 °C 17.6 °C 20.2 °C 85% 1011.4 hPa 108 W/m² 0.0 mm 0.000 mm 6.2 km/h
08:15 20.2 °C 17.6 °C 20.0 °C 85% 1011.5 hPa 129 W/m² 0.0 mm 0.000 mm 6.8 km/h
08:20 20.3 °C 17.7 °C 20.3 °C 85% 1011.4 hPa 165 W/m² 0.0 mm 0.000 mm 5.0 km/h
08:25 20.6 °C 17.8 °C 20.4 °C 84% 1011.5 hPa 321 W/m² 0.0 mm 0.000 mm 6.9 km/h
08:30 21.0 °C 18.0 °C 20.3 °C 83% 1011.5 hPa 374 W/m² 0.0 mm 0.000 mm 8.4 km/h
08:35 21.4 °C 18.2 °C 21.4 °C 82% 1011.5 hPa 377 W/m² 0.0 mm 0.000 mm 4.9 km/h
08:40 21.8 °C 18.2 °C 21.0 °C 80% 1011.4 hPa 374 W/m² 0.0 mm 0.000 mm 8.9 km/h
08:45 22.1 °C 18.3 °C 21.4 °C 79% 1011.5 hPa 367 W/m² 0.0 mm 0.000 mm 8.4 km/h
08:50 22.2 °C 18.2 °C 21.6 °C 78% 1011.4 hPa 343 W/m² 0.0 mm 0.000 mm 8.3 km/h
08:55 22.4 °C 18.2 °C 21.4 °C 77% 1011.1 hPa 364 W/m² 0.0 mm 0.000 mm 9.6 km/h
09:00 22.6 °C 18.4 °C 21.6 °C 77% 1011.1 hPa 362 W/m² 0.0 mm 0.178 mm 9.8 km/h
09:05 22.6 °C 18.4 °C 22.0 °C 77% 1011.5 hPa 370 W/m² 0.0 mm 0.000 mm 8.2 km/h
09:10 22.8 °C 18.3 °C 22.6 °C 76% 1011.2 hPa 372 W/m² 0.0 mm 0.000 mm 7.1 km/h
09:15 23.2 °C 18.5 °C 23.2 °C 75% 1011.5 hPa 385 W/m² 0.0 mm 0.000 mm 5.8 km/h
09:20 23.4 °C 18.7 °C 23.2 °C 75% 1011.4 hPa 400 W/m² 0.0 mm 0.000 mm 7.2 km/h
09:25 23.6 °C 18.7 °C 23.0 °C 74% 1011.0 hPa 414 W/m² 0.0 mm 0.000 mm 8.3 km/h
09:30 23.7 °C 18.8 °C 23.1 °C 74% 1011.0 hPa 425 W/m² 0.0 mm 0.000 mm 8.4 km/h
09:35 23.8 °C 18.7 °C 22.9 °C 73% 1011.0 hPa 437 W/m² 0.0 mm 0.000 mm 9.7 km/h
09:40 24.2 °C 19.0 °C 24.2 °C 73% 1011.2 hPa 450 W/m² 0.0 mm 0.000 mm 6.0 km/h
09:45 24.4 °C 18.8 °C 24.1 °C 71% 1011.2 hPa 468 W/m² 0.0 mm 0.000 mm 7.4 km/h
09:50 24.6 °C 18.5 °C 23.9 °C 69% 1011.0 hPa 477 W/m² 0.0 mm 0.000 mm 9.3 km/h
09:55 24.8 °C 18.9 °C 24.8 °C 70% 1011.0 hPa 486 W/m² 0.0 mm 0.000 mm 6.6 km/h
10:00 25.0 °C 18.7 °C 24.6 °C 68% 1010.9 hPa 495 W/m² 0.0 mm 0.304 mm 7.8 km/h
10:05 25.2 °C 18.6 °C 24.6 °C 67% 1010.9 hPa 518 W/m² 0.0 mm 0.000 mm 9.1 km/h
10:10 25.3 °C 18.7 °C 24.7 °C 67% 1011.3 hPa 538 W/m² 0.0 mm 0.000 mm 9.0 km/h
10:15 25.4 °C 18.8 °C 24.5 °C 67% 1011.3 hPa 487 W/m² 0.0 mm 0.000 mm 10.7 km/h
10:20 25.7 °C 19.1 °C 25.3 °C 67% 1011.3 hPa 620 W/m² 0.0 mm 0.000 mm 8.3 km/h
10:25 26.0 °C 19.1 °C 25.7 °C 66% 1010.9 hPa 535 W/m² 0.0 mm 0.000 mm 7.9 km/h
10:30 26.1 °C 19.2 °C 26.1 °C 66% 1011.0 hPa 379 W/m² 0.0 mm 0.000 mm 5.9 km/h
10:35 26.0 °C 19.1 °C 24.9 °C 66% 1010.8 hPa 452 W/m² 0.0 mm 0.000 mm 12.0 km/h
10:40 26.1 °C 19.5 °C 26.1 °C 67% 1011.1 hPa 471 W/m² 0.0 mm 0.000 mm 5.6 km/h
10:45 26.1 °C 19.0 °C 25.6 °C 65% 1010.9 hPa 384 W/m² 0.0 mm 0.000 mm 8.7 km/h
10:50 26.1 °C 19.2 °C 25.7 °C 66% 1010.8 hPa 350 W/m² 0.0 mm 0.000 mm 8.2 km/h
10:55 26.3 °C 19.4 °C 26.1 °C 66% 1010.9 hPa 493 W/m² 0.0 mm 0.000 mm 7.2 km/h
11:00 26.6 °C 20.0 °C 26.4 °C 67% 1010.9 hPa 551 W/m² 0.0 mm 0.356 mm 7.5 km/h
11:05 27.2 °C 20.0 °C 27.1 °C 65% 1011.2 hPa 731 W/m² 0.0 mm 0.000 mm 6.9 km/h
11:10 27.7 °C 20.0 °C 27.6 °C 63% 1010.9 hPa 594 W/m² 0.0 mm 0.000 mm 6.8 km/h
11:15 27.8 °C 19.6 °C 26.9 °C 61% 1011.1 hPa 659 W/m² 0.0 mm 0.000 mm 12.6 km/h
11:20 28.0 °C 19.8 °C 27.2 °C 61% 1011.1 hPa 710 W/m² 0.0 mm 0.000 mm 12.5 km/h
11:25 28.4 °C 19.6 °C 27.8 °C 59% 1010.7 hPa 708 W/m² 0.0 mm 0.000 mm 11.3 km/h
11:30 28.8 °C 19.4 °C 28.7 °C 57% 1010.7 hPa 722 W/m² 0.0 mm 0.000 mm 6.8 km/h
11:35 29.2 °C 19.8 °C 28.8 °C 57% 1010.7 hPa 730 W/m² 0.0 mm 0.000 mm 10.2 km/h
11:40 29.2 °C 19.5 °C 28.6 °C 56% 1010.6 hPa 556 W/m² 0.0 mm 0.000 mm 12.9 km/h
11:45 29.3 °C 19.3 °C 29.1 °C 55% 1010.8 hPa 699 W/m² 0.0 mm 0.000 mm 8.0 km/h
11:50 29.4 °C 19.1 °C 28.8 °C 54% 1010.7 hPa 696 W/m² 0.0 mm 0.000 mm 13.0 km/h
11:55 29.6 °C 18.7 °C 29.1 °C 52% 1010.5 hPa 704 W/m² 0.0 mm 0.000 mm 12.1 km/h
12:00 29.7 °C 19.1 °C 29.5 °C 53% 1010.9 hPa 706 W/m² 0.0 mm 0.508 mm 7.9 km/h
12:05 30.0 °C 18.4 °C 29.8 °C 50% 1010.9 hPa 703 W/m² 0.0 mm 0.000 mm 8.8 km/h
12:10 30.2 °C 18.6 °C 29.8 °C 50% 1010.8 hPa 710 W/m² 0.0 mm 0.000 mm 10.9 km/h
12:15 30.1 °C 18.5 °C 29.7 °C 50% 1010.7 hPa 714 W/m² 0.0 mm 0.000 mm 11.1 km/h
12:20 30.2 °C 18.6 °C 29.8 °C 50% 1010.8 hPa 724 W/m² 0.0 mm 0.000 mm 12.1 km/h
12:25 30.3 °C 18.4 °C 29.8 °C 49% 1010.7 hPa 729 W/m² 0.0 mm 0.000 mm 14.3 km/h
12:30 30.3 °C 18.0 °C 29.7 °C 48% 1010.7 hPa 738 W/m² 0.0 mm 0.000 mm 15.5 km/h
12:35 30.4 °C 16.4 °C 29.9 °C 43% 1010.4 hPa 744 W/m² 0.0 mm 0.000 mm 14.7 km/h
12:40 30.7 °C 17.7 °C 30.2 °C 46% 1010.4 hPa 743 W/m² 0.0 mm 0.000 mm 15.0 km/h
12:45 30.7 °C 18.1 °C 30.4 °C 47% 1010.3 hPa 739 W/m² 0.0 mm 0.000 mm 10.9 km/h
12:50 30.8 °C 17.5 °C 30.3 °C 45% 1010.6 hPa 746 W/m² 0.0 mm 0.000 mm 14.9 km/h
12:55 30.9 °C 17.2 °C 30.4 °C 44% 1010.4 hPa 751 W/m² 0.0 mm 0.000 mm 16.8 km/h
13:00 31.0 °C 17.3 °C 30.6 °C 44% 1010.5 hPa 751 W/m² 0.0 mm 0.610 mm 14.4 km/h
13:05 30.9 °C 16.8 °C 30.6 °C 43% 1010.1 hPa 756 W/m² 0.0 mm 0.000 mm 12.6 km/h
13:10 31.0 °C 16.6 °C 30.5 °C 42% 1010.4 hPa 760 W/m² 0.0 mm 0.000 mm 15.9 km/h
13:15 31.2 °C 16.7 °C 30.8 °C 42% 1010.4 hPa 758 W/m² 0.0 mm 0.000 mm 15.6 km/h
13:20 31.3 °C 16.4 °C 30.9 °C 41% 1010.4 hPa 762 W/m² 0.0 mm 0.000 mm 16.9 km/h
13:25 31.4 °C 16.9 °C 31.1 °C 42% 1010.2 hPa 757 W/m² 0.0 mm 0.000 mm 13.0 km/h
13:30 31.6 °C 16.7 °C 31.3 °C 41% 1009.8 hPa 762 W/m² 0.0 mm 0.000 mm 16.9 km/h
13:35 31.5 °C 16.6 °C 31.1 °C 41% 1009.8 hPa 762 W/m² 0.0 mm 0.000 mm 19.5 km/h
13:40 31.5 °C 16.2 °C 31.2 °C 40% 1009.8 hPa 761 W/m² 0.0 mm 0.000 mm 16.0 km/h